CW9774 Weather Reports


time (UTC)temp
C
wind
direction
speed
KPH
gust
KPH
rain 1hr
cm
rain 24hr
cm
rain mn
cm
humidity
%
barometer
mb
20260509015029 17 346 8.0 16.1 0.00 0.00 0.00 37 1008.1
20260509014542 17 345 6.4 20.9 0.00 0.00 0.00 36 1008.0
20260509014034 18 313 8.0 20.9 0.00 0.00 0.00 35 1007.9
20260509013532 18 332 12.9 20.9 0.00 0.00 0.00 34 1007.9
20260509013043 18 344 11.3 20.9 0.00 0.00 0.00 33 1007.8
20260509012533 19 325 11.3 24.1 0.00 0.00 0.00 34 1007.7
20260509012034 19 321 14.5 25.7 0.00 0.00 0.00 33 1007.7
20260509011556 19 313 14.5 25.7 0.00 0.00 0.00 33 1007.5
20260509011030 20 326 14.5 22.5 0.00 0.00 0.00 34 1007.4
20260509010530 20 352 14.5 25.7 0.00 0.00 0.00 33 1007.4
20260509010042 20 325 16.1 27.4 0.00 0.00 0.00 33 1007.4
20260509005529 20 338 14.5 27.4 0.00 0.00 0.00 35 1007.4
20260509005031 21 345 16.1 29.0 0.00 0.00 0.00 33 1007.3
20260509004604 21 304 17.7 32.2 0.00 0.00 0.00 32 1007.3
20260509004029 21 339 19.3 32.2 0.00 0.00 0.00 31 1007.2
20260509003534 21 355 20.9 32.2 0.00 0.00 0.00 31 1007.2
20260509003044 21 323 20.9 35.4 0.00 0.00 0.00 30 1007.2
20260509002534 21 335 19.3 35.4 0.00 0.00 0.00 30 1007.2
20260509002029 21 360 19.3 35.4 0.00 0.00 0.00 28 1007.1
20260509001539 22 318 24.1 35.4 0.00 0.00 0.00 28 1007.1
20260509001031 22 313 19.3 33.8 0.00 0.00 0.00 28 1007.1
20260509000530 22 339 20.9 37.0 0.00 0.00 0.00 28 1007.0
20260509000040 22 312 24.1 37.0 0.00 0.00 0.00 28 1006.9
20260508235535 22 330 20.9 32.2 0.00 0.00 0.00 29 1007.0
20260508235031 22 313 17.7 30.6 0.00 0.00 0.00 30 1006.9
20260508234539 22 351 19.3 35.4 0.00 0.00 0.00 31 1006.9
20260508234029 22 327 24.1 35.4 0.00 0.00 0.00 30 1006.9
20260508233529 22 317 20.9 35.4 0.00 0.00 0.00 30 1006.9
20260508233048 22 331 17.7 32.2 0.00 0.00 0.00 28 1006.8
20260508232529 22 327 17.7 33.8 0.00 0.00 0.00 28 1006.8
20260508232032 23 321 19.3 33.8 0.00 0.00 0.00 30 1006.9
20260508231546 23 281 20.9 35.4 0.00 0.00 0.00 27 1006.8
20260508231029 23 304 22.5 37.0 0.00 0.00 0.00 28 1006.7
20260508230529 23 325 20.9 38.6 0.00 0.00 0.00 27 1006.7
20260508230044 23 289 24.1 38.6 0.00 0.00 0.00 27 1006.8
20260508225530 23 289 20.9 37.0 0.00 0.00 0.00 28 1006.8
20260508225032 23 285 25.7 38.6 0.00 0.00 0.00 26 1006.8
20260508224544 23 322 19.3 38.6 0.00 0.00 0.00 25 1006.8
20260508224030 23 308 22.5 37.0 0.00 0.00 0.00 28 1006.8
20260508223530 23 296 22.5 37.0 0.00 0.00 0.00 29 1006.7
20260508223046 23 331 25.7 37.0 0.00 0.00 0.00 30 1006.7
20260508222530 22 13 22.5 35.4 0.00 0.00 0.00 29 1006.7
20260508222030 22 307 17.7 35.4 0.00 0.00 0.00 32 1006.7
20260508221541 22 310 20.9 33.8 0.00 0.00 0.00 33 1006.8
20260508221034 23 338 22.5 33.8 0.00 0.00 0.00 32 1006.7
20260508220532 23 310 14.5 30.6 0.00 0.00 0.00 33 1006.8
20260508220043 23 288 12.9 30.6 0.00 0.00 0.00 39 1006.8
20260508215530 23 286 19.3 38.6 0.00 0.00 0.00 36 1006.8
20260508215033 23 277 22.5 38.6 0.00 0.00 0.00 36 1007.0
20260508214543 23 271 17.7 32.2 0.00 0.00 0.00 34 1006.8
20260508214030 22 294 19.3 32.2 0.00 0.00 0.00 35 1006.9
20260508213529 22 308 12.9 25.7 0.00 0.00 0.00 33 1006.8
20260508213041 23 289 17.7 30.6 0.00 0.00 0.00 36 1006.8
20260508212531 23 331 19.3 30.6 0.00 0.00 0.00 34 1006.8
20260508212033 23 352 11.3 30.6 0.00 0.00 0.00 33 1007.0
20260508211539 23 300 19.3 30.6 0.00 0.00 0.00 33 1007.0
20260508211030 22 327 16.1 27.4 0.00 0.00 0.00 32 1007.1
20260508210531 22 312 16.1 27.4 0.00 0.00 0.00 33 1007.2
20260508210040 23 320 17.7 27.4 0.00 0.00 0.00 32 1007.3
20260508205531 23 277 16.1 27.4 0.00 0.00 0.00 34 1007.2
20260508205032 23 299 19.3 32.2 0.00 0.00 0.00 32 1007.2
20260508204543 23 304 19.3 32.2 0.00 0.00 0.00 33 1007.3
20260508204037 22 318 16.1 32.2 0.00 0.00 0.00 32 1007.4
20260508203532 23 279 17.7 32.2 0.00 0.00 0.00 33 1007.5
20260508203038 23 304 19.3 29.0 0.00 0.00 0.00 32 1007.5
20260508202534 23 297 12.9 35.4 0.00 0.00 0.00 35 1007.5
20260508202034 22 246 16.1 37.0 0.00 0.00 0.00 36 1007.5
20260508201544 22 288 22.5 37.0 0.00 0.00 0.00 34 1007.7
20260508201035 22 307 16.1 37.0 0.00 0.00 0.00 31 1007.8
20260508200532 22 274 17.7 37.0 0.00 0.00 0.00 33 1007.8
20260508200042 22 334 20.9 37.0 0.00 0.00 0.00 31 1007.8
20260508195530 22 295 16.1 32.2 0.00 0.00 0.00 37 1007.7
20260508195031 22 342 17.7 29.0 0.00 0.00 0.00 34 1007.8
20260508194542 22 330 20.9 29.0 0.00 0.00 0.00 35 1007.8
20260508194031 22 321 14.5 29.0 0.00 0.00 0.00 37 1007.8
20260508193530 22 315 16.1 38.6 0.00 0.00 0.00 35 1007.9
20260508193051 22 295 20.9 38.6 0.00 0.00 0.00 38 1007.9
20260508192530 22 307 20.9 32.2 0.00 0.00 0.00 37 1007.9
20260508192031 22 342 16.1 32.2 0.00 0.00 0.00 35 1008.0
20260508191542 22 317 16.1 32.2 0.00 0.00 0.00 33 1007.9
20260508191030 22 360 20.9 35.4 0.00 0.00 0.00 35 1008.0
20260508190531 22 321 19.3 35.4 0.00 0.00 0.00 31 1008.0
20260508190043 22 349 19.3 35.4 0.00 0.00 0.00 35 1008.1
20260508185532 22 287 19.3 30.6 0.00 0.00 0.00 39 1008.0
20260508185030 22 286 17.7 33.8 0.00 0.00 0.00 37 1008.0
20260508184550 22 311 22.5 33.8 0.00 0.00 0.00 37 1008.0
20260508184030 22 286 14.5 30.6 0.00 0.00 0.00 39 1007.8
20260508183532 22 296 19.3 30.6 0.00 0.00 0.00 39 1008.1
20260508183040 22 315 17.7 29.0 0.00 0.00 0.00 42 1008.1
20260508182531 22 304 16.1 25.7 0.00 0.00 0.00 40 1008.3
20260508182033 22 320 19.3 35.4 0.00 0.00 0.00 41 1008.3
20260508181551 21 282 19.3 37.0 0.00 0.00 0.00 42 1008.3
20260508181030 21 257 22.5 37.0 0.00 0.00 0.00 42 1008.3
20260508180531 21 269 17.7 29.0 0.00 0.00 0.00 38 1008.3
20260508180041 22 257 14.5 27.4 0.00 0.00 0.00 42 1008.3
20260508175530 22 300 12.9 27.4 0.00 0.00 0.00 45 1008.4
20260508175031 21 315 17.7 27.4 0.00 0.00 0.00 44 1008.4
20260508174537 21 274 16.1 29.0 0.00 0.00 0.00 45 1008.3
20260508174030 21 273 19.3 29.0 0.00 0.00 0.00 41 1008.5
20260508173530 21 282 12.9 27.4 0.00 0.00 0.00 47 1008.4
20260508173036 21 256 12.9 27.4 0.00 0.00 0.00 41 1008.6
20260508172530 21 320 14.5 24.1 0.00 0.00 0.00 44 1008.6
20260508172031 21 347 12.9 27.4 0.00 0.00 0.00 44 1008.7
20260508171545 21 308 17.7 27.4 0.00 0.00 0.00 43 1008.7
20260508171030 21 284 16.1 24.1 0.00 0.00 0.00 48 1008.6
20260508170531 21 265 12.9 29.0 0.00 0.00 0.00 49 1008.7
20260508170043 21 292 16.1 29.0 0.00 0.00 0.00 49 1008.8
20260508165530 21 342 16.1 27.4 0.00 0.00 0.00 46 1008.8
20260508165030 21 296 17.7 24.1 0.00 0.00 0.00 48 1008.9
20260508164542 21 284 16.1 24.1 0.00 0.00 0.00 49 1008.9
20260508164033 21 269 16.1 24.1 0.00 0.00 0.00 48 1008.9
20260508163530 21 234 16.1 24.1 0.00 0.00 0.00 48 1008.9
20260508163045 21 275 12.9 24.1 0.00 0.00 0.00 48 1008.9
20260508162530 20 281 12.9 27.4 0.00 0.00 0.00 47 1008.9
20260508162031 20 246 16.1 27.4 0.00 0.00 0.00 44 1008.9
20260508161539 20 309 12.9 27.4 0.00 0.00 0.00 50 1008.9
20260508161030 20 284 12.9 27.4 0.00 0.00 0.00 50 1008.9
20260508160530 20 275 16.1 27.4 0.00 0.00 0.00 45 1008.9
20260508155530 20 267 12.9 22.5 0.00 0.00 0.00 46 1008.9
20260508155030 20 278 12.9 20.9 0.00 0.00 0.00 48 1008.9
20260508154542 20 250 12.9 20.9 0.00 0.00 0.00 43 1009.0
20260508154031 20 261 11.3 20.9 0.00 0.00 0.00 47 1009.0
20260508153531 19 248 14.5 20.9 0.00 0.00 0.00 40 1009.1
20260508153045 19 241 12.9 24.1 0.00 0.00 0.00 41 1009.2
20260508152530 18 234 14.5 25.7 0.00 0.00 0.00 40 1009.1
20260508152030 18 223 17.7 25.7 0.00 0.00 0.00 42 1009.2
20260508151543 18 242 19.3 25.7 0.00 0.00 0.00 41 1009.3
20260508151033 18 242 19.3 27.4 0.00 0.00 0.00 41 1009.3
20260508150530 17 238 17.7 27.4 0.00 0.00 0.00 44 1009.4
20260508150039 17 244 17.7 27.4 0.00 0.00 0.00 43 1009.5
20260508145530 17 240 17.7 25.7 0.00 0.00 0.00 42 1009.6
20260508145034 17 234 17.7 25.7 0.00 0.00 0.00 42 1009.6
20260508144534 17 247 14.5 24.1 0.00 0.00 0.00 43 1009.6
20260508144030 16 238 19.3 24.1 0.00 0.00 0.00 43 1009.7
20260508143530 16 240 11.3 22.5 0.00 0.00 0.00 50 1009.7
20260508143055 16 244 11.3 20.9 0.00 0.00 0.00 52 1009.8
20260508142529 16 239 14.5 25.7 0.00 0.00 0.00 49 1009.8
20260508142031 15 252 14.5 25.7 0.00 0.00 0.00 50 1009.9
20260508141551 15 219 14.5 24.1 0.00 0.00 0.00 52 1009.9
20260508141030 15 240 14.5 19.3 0.00 0.00 0.00 52 1009.9
20260508140530 15 230 11.3 16.1 0.00 0.00 0.00 55 1010.0
20260508140043 15 214 6.4 12.9 0.00 0.00 0.00 57 1009.8
20260508135533 14 229 4.8 9.7 0.00 0.00 0.00 60 1009.8
20260508135030 13 249 3.2 8.0 0.00 0.00 0.00 59 1009.8
20260508134539 13 216 3.2 8.0 0.00 0.00 0.00 59 1009.8
20260508134030 13 232 4.8 9.7 0.00 0.00 0.00 60 1009.8
20260508133531 13 209 3.2 9.7 0.00 0.00 0.00 62 1009.9
20260508133052 13 222 4.8 9.7 0.00 0.00 0.00 61 1009.9
20260508132531 12 226 4.8 8.0 0.00 0.00 0.00 62 1010.0
20260508132031 12 213 3.2 6.4 0.00 0.00 0.00 63 1009.9
20260508131545 12 229 3.2 6.4 0.00 0.00 0.00 62 1009.8
20260508131031 12 221 3.2 6.4 0.00 0.00 0.00 63 1009.8
20260508130531 11 223 0.0 6.4 0.00 0.00 0.00 62 1009.8
20260508130047 11 0 0.0 1.6 0.00 0.00 0.00 61 1009.7
20260508125532 11 0 0.0 1.6 0.00 0.00 0.00 62 1009.7
20260508125031 10 0 0.0 1.6 0.00 0.00 0.00 68 1009.7
20260508124539 10 0 0.0 1.6 0.00 0.00 0.00 71 1009.7
20260508124031 9 0 0.0 4.8 0.00 0.00 0.00 73 1009.8
20260508123530 9 0 0.0 4.8 0.00 0.00 0.00 73 1009.7
20260508123038 8 219 0.0 6.4 0.00 0.00 0.00 70 1009.7
20260508122532 8 0 0.0 6.4 0.00 0.00 0.00 72 1009.6
20260508122032 8 228 3.2 6.4 0.00 0.00 0.00 72 1009.6
20260508121555 7 228 1.6 6.4 0.00 0.00 0.00 70 1009.6
20260508121030 7 0 0.0 3.2 0.00 0.00 0.00 70 1009.5
20260508120531 7 0 0.0 3.2 0.00 0.00 0.00 72 1009.5
20260508120042 7 0 0.0 1.6 0.00 0.00 0.00 72 1009.6
20260508115531 7 0 0.0 4.8 0.00 0.00 0.00 71 1009.5
20260508115029 7 0 0.0 4.8 0.00 0.00 0.00 71 1009.3
20260508114541 7 0 0.0 3.2 0.00 0.00 0.00 72 1009.3
20260508114030 7 0 0.0 3.2 0.00 0.00 0.00 70 1009.1
20260508113530 7 0 0.0 4.8 0.00 0.00 0.00 70 1009.2
20260508113039 7 0 0.0 6.4 0.00 0.00 0.00 72 1009.2
20260508112529 7 264 0.0 6.4 0.00 0.00 0.00 72 1009.4
20260508112029 7 264 3.2 9.7 0.00 0.00 0.00 73 1009.5
20260508111539 8 286 4.8 9.7 0.00 0.00 0.00 71 1009.5
20260508111030 8 236 1.6 4.8 0.00 0.00 0.00 69 1009.6
20260508110530 8 0 0.0 0.0 0.00 0.00 0.00 68 1009.5
20260508110048 8 0 0.0 1.6 0.00 0.00 0.00 67 1009.5
20260508105530 8 0 0.0 1.6 0.00 0.00 0.00 68 1009.5
20260508105029 8 0 0.0 1.6 0.00 0.00 0.00 68 1009.5
20260508104536 8 0 0.0 1.6 0.00 0.00 0.00 66 1009.5
20260508104030 8 0 0.0 1.6 0.00 0.00 0.00 66 1009.3
20260508103530 8 0 0.0 3.2 0.00 0.00 0.00 64 1009.3
20260508103041 8 0 0.0 3.2 0.00 0.00 0.00 64 1009.3
20260508102530 8 193 0.0 3.2 0.00 0.00 0.00 66 1009.5
20260508102030 7 0 0.0 3.2 0.00 0.00 0.00 65 1009.4
20260508101542 7 0 0.0 1.6 0.00 0.00 0.00 68 1009.3
20260508101032 7 193 0.0 0.0 0.00 0.00 0.00 69 1009.3
20260508100529 7 0 0.0 0.0 0.00 0.00 0.00 69 1009.3
20260508100039 7 0 0.0 0.0 0.00 0.00 0.00 68 1009.3
20260508095533 7 0 0.0 1.6 0.00 0.00 0.00 68 1009.3
20260508095030 7 0 0.0 1.6 0.00 0.00 0.00 67 1009.3
20260508094542 7 0 0.0 1.6 0.00 0.00 0.00 64 1009.5
20260508094029 8 0 0.0 1.6 0.00 0.00 0.00 60 1009.6
20260508093530 8 0 0.0 1.6 0.00 0.00 0.00 59 1009.7
20260508093038 8 0 0.0 1.6 0.00 0.00 0.00 59 1009.8
20260508092530 8 0 0.0 3.2 0.00 0.00 0.00 59 1009.8
20260508092030 8 0 0.0 3.2 0.00 0.00 0.00 60 1009.7
20260508091543 9 0 0.0 1.6 0.00 0.00 0.00 61 1009.7
20260508091030 9 0 0.0 1.6 0.00 0.00 0.00 61 1009.8
20260508090530 10 0 0.0 3.2 0.00 0.00 0.00 64 1009.8
20260508090042 10 0 0.0 4.8 0.00 0.00 0.00 65 1009.7
20260508085531 10 0 1.6 4.8 0.00 0.00 0.00 64 1009.8
20260508085031 10 193 1.6 6.4 0.00 0.00 0.00 64 1009.7
20260508084539 10 193 3.2 6.4 0.00 0.00 0.00 63 1009.7
20260508084033 10 193 1.6 4.8 0.00 0.00 0.00 58 1009.6
20260508083529 10 193 0.0 1.6 0.00 0.00 0.00 65 1009.6
20260508083115 10 0 0.0 3.2 0.00 0.00 0.00 66 1009.5
20260508082531 10 0 0.0 3.2 0.00 0.00 0.00 65 1009.6
20260508082029 10 193 0.0 3.2 0.00 0.00 0.00 61 1009.8
20260508081542 10 0 0.0 3.2 0.00 0.00 0.00 61 1009.8
20260508081031 11 0 0.0 4.8 0.00 0.00 0.00 59 1009.7
20260508080529 11 0 1.6 4.8 0.00 0.00 0.00 56 1009.8
20260508080046 11 0 0.0 8.0 0.00 0.00 0.00 56 1009.6
20260508075532 11 0 3.2 8.0 0.00 0.00 0.00 50 1009.8
20260508075029 11 195 3.2 8.0 0.00 0.00 0.00 50 1010.0
20260508074545 11 175 0.0 8.0 0.00 0.00 0.00 51 1009.9
20260508074030 11 0 1.6 8.0 0.00 0.00 0.00 50 1009.8
20260508073530 11 161 4.8 11.3 0.00 0.00 0.00 52 1009.7
20260508073043 11 198 4.8 11.3 0.00 0.00 0.00 53 1009.7
20260508072529 10 160 3.2 8.0 0.00 0.00 0.00 53 1009.7
20260508072030 10 213 1.6 9.7 0.00 0.00 0.00 60 1009.9
20260508071544 10 213 4.8 9.7 0.00 0.00 0.00 59 1009.9
20260508071029 11 193 6.4 14.5 0.00 0.00 0.00 54 1009.9
20260508070534 11 189 6.4 14.5 0.00 0.00 0.00 57 1009.8
20260508070044 11 194 8.0 14.5 0.00 0.00 0.00 57 1009.9
20260508065530 10 177 8.0 16.1 0.00 0.00 0.00 56 1009.9
20260508065030 10 202 4.8 16.1 0.00 0.00 0.00 61 1010.1
20260508064601 11 200 8.0 16.1 0.00 0.00 0.00 60 1010.3
20260508064031 11 0 3.2 8.0 0.00 0.00 0.00 54 1010.1
20260508063530 11 53 3.2 8.0 0.00 0.00 0.00 62 1010.2
20260508063039 10 43 0.0 9.7 0.00 0.00 0.00 58 1010.4
20260508062533 10 0 3.2 9.7 0.00 0.00 0.00 57 1010.7
20260508062030 10 350 4.8 8.0 0.00 0.00 0.00 62 1011.0
20260508061544 10 0 0.0 1.6 0.00 0.00 0.00 59 1010.8
20260508061034 10 207 0.0 11.3 0.00 0.00 0.00 62 1011.0
20260508060529 10 0 0.0 11.3 0.00 0.00 0.00 63 1011.0
20260508060041 11 207 3.2 11.3 0.00 0.00 0.00 62 1011.0
20260508055529 11 0 0.0 4.8 0.00 0.00 0.00 55 1010.8
20260508055030 11 59 1.6 4.8 0.00 0.00 0.00 55 1010.3
20260508054540 11 0 0.0 4.8 0.00 0.00 0.00 58 1010.2
20260508054031 11 59 1.6 4.8 0.00 0.00 0.00 55 1010.2
20260508053531 11 0 0.0 4.8 0.00 0.00 0.00 57 1010.1
20260508053039 11 0 0.0 4.8 0.00 0.00 0.00 53 1010.3
20260508052531 11 0 1.6 4.8 0.00 0.00 0.00 49 1010.3
20260508052031 11 0 0.0 1.6 0.00 0.00 0.00 51 1010.4
20260508051539 11 0 0.0 0.0 0.00 0.00 0.00 52 1010.4
20260508051031 11 0 0.0 1.6 0.00 0.00 0.00 53 1010.4
20260508050531 11 0 0.0 1.6 0.00 0.00 0.00 51 1010.3
20260508050046 11 0 0.0 3.2 0.00 0.00 0.00 50 1010.3
20260508045533 11 0 0.0 3.2 0.00 0.00 0.00 49 1010.3
20260508045032 11 59 0.0 3.2 0.00 0.00 0.00 46 1010.1
20260508044540 11 0 0.0 1.6 0.00 0.00 0.00 50 1010.3
20260508044033 11 0 0.0 4.8 0.00 0.00 0.00 46 1010.3
20260508043533 11 0 0.0 4.8 0.00 0.00 0.00 50 1010.1
20260508043049 11 59 0.0 6.4 0.00 0.00 0.00 49 1010.1
20260508042531 11 59 1.6 6.4 0.00 0.00 0.00 50 1009.9
20260508042031 10 59 1.6 4.8 0.00 0.00 0.00 50 1010.1
20260508041539 10 59 1.6 4.8 0.00 0.00 0.00 49 1010.2
20260508041031 10 0 0.0 1.6 0.00 0.00 0.00 52 1010.2
20260508040531 9 0 0.0 1.6 0.00 0.00 0.00 53 1010.1
20260508040045 9 0 0.0 1.6 0.00 0.00 0.00 54 1010.2
20260508035531 9 0 0.0 1.6 0.00 0.00 0.00 54 1010.2
20260508035032 8 0 0.0 1.6 0.00 0.00 0.00 54 1010.3
20260508034542 8 0 0.0 3.2 0.00 0.00 0.00 54 1010.2
20260508034031 8 0 0.0 3.2 0.00 0.00 0.00 54 1010.2
20260508033531 8 59 0.0 3.2 0.00 0.00 0.00 54 1010.1
20260508033039 9 0 0.0 1.6 0.00 0.00 0.00 54 1010.1
20260508032531 9 0 0.0 1.6 0.00 0.00 0.00 53 1010.1
20260508032032 10 0 0.0 3.2 0.00 0.00 0.00 53 1010.1
20260508031538 10 0 0.0 4.8 0.00 0.00 0.00 53 1010.0
20260508031031 10 0 0.0 4.8 0.00 0.00 0.00 53 1010.0
20260508030531 10 54 0.0 4.8 0.00 0.00 0.00 48 1009.9
20260508030038 11 0 0.0 0.0 0.00 0.00 0.00 50 1009.8
20260508025533 11 0 0.0 0.0 0.00 0.00 0.00 51 1009.8
20260508025033 11 0 0.0 0.0 0.00 0.00 0.00 49 1009.8
20260508024554 11 0 0.0 0.0 0.00 0.00 0.00 48 1009.8
20260508024031 12 0 0.0 0.0 0.00 0.00 0.00 46 1009.8
20260508023531 12 0 0.0 0.0 0.00 0.00 0.00 44 1009.8
20260508023042 12 0 0.0 0.0 0.00 0.00 0.00 44 1009.7
20260508022530 12 0 0.0 0.0 0.00 0.00 0.00 41 1009.7
20260508022031 12 0 0.0 0.0 0.00 0.00 0.00 39 1009.6
20260508021540 12 0 0.0 0.0 0.00 0.00 0.00 40 1009.6
20260508021032 12 0 0.0 0.0 0.00 0.00 0.00 43 1009.4
20260508020530 12 0 0.0 0.0 0.00 0.00 0.00 44 1009.4
20260508020044 12 0 0.0 0.0 0.00 0.00 0.00 43 1009.4
20260508015531 13 0 0.0 0.0 0.00 0.00 0.00 44 1009.4